C/2005 X1 (Beshore)

Epoch 2005 July 9.0 TT = JDT 2453560.5  

T 2005 July 5.73546 TT                                  Nakano

q   2.8620325            (2000.0)            P               Q

z  +0.0015111      Peri.  117.77736     -0.27762033     -0.46600977

 +/-0.0000479      Node   302.79880     -0.00720610     +0.87545656

e   0.9956751      Incl.   91.93966     +0.96066385     -0.12810429

From 102 observations 2005 Dec. 7-2006 Mar. 16, mean residual 0".85.

   (1/a)org.= +0.001420, (1/a)fut.= +0.001746 (+/-0.000048), Q= 6.

Residuals in seconds of arc 

2005/                     051223 349  0.5+  0.3+    060122 G96  0.2+  1.2+  

051207 703  0.9+  1.3+    051223 349  0.3+  0.0     060122 104 (0.8-  2.8-) 

051207 703  0.1+  0.3+    051223 349  0.1+  0.1-    060122 104  1.9+  1.2-  

051207 703  0.8-  1.2-    051225 213  0.8+  0.8+    060122 104  1.3-  0.7+  

051207 703  1.7-  1.2-    051225 213  0.5+  0.7+    060122 104 (0.6-  3.1-) 

051207 703  0.6-  1.2-    051227 349  0.8-  1.3-    060122 130  1.0-  0.3+  

051207 703  0.9-  0.9-    051227 349  0.7-  0.8-    060123 G96  0.4-  1.3-  

051207 703  0.0   0.5+    051227 349  0.3-  0.7-    060123 G96  1.0-  1.8-  

051207 703  0.7-  0.8-    051229 D83  0.5-  1.3-    060123 G96  1.1-  0.5-  

051208 854  0.2+  1.0+    051229 D83  0.2+  0.3-    060123 G96  0.0   1.3+  

051208 854  1.8+  0.8+    051229 147 (0.7+  3.6-)   060124 699  1.0+  0.1+  

051208 854  0.7+  0.5-    051229 147 (3.0-  1.9-)   060124 699  0.4+  0.2-  

051208 703  0.5+  1.2+    051230 703 (3.0-  1.1-)   060124 699  0.8-  0.7-  

051208 703  0.4+  0.4-    051230 703  0.6-  1.7+    060124 699  0.6+  0.4-  

051208 703  0.5+  1.1+    051230 703  0.6-  1.2-    060124 349  0.4+  0.9-  

051208 703  1.1-  0.1+    051230 703  1.8-  0.5+    060124 349  0.6+  0.6-  

051208 703  1.1-  1.5-    2006/                     060124 240 (1.7-  3.7-) 

051208 703  0.2+  0.8+    060103 213  1.4+  0.6+    060124 240  0.4-  1.7+  

051209 118  2.0+  0.8-    060103 213  1.0+  0.2+    060125 703  0.5-  1.4-  

051209 118  0.5+  0.3+    060103 213  2.0-  1.0-    060125 703  1.1+  0.2-  

051209 734  0.6-  1.0-    060103 349  0.0   0.4+    060126 850  0.8+  1.0+  

051209 734  0.3+  0.8-    060103 349  0.2+  0.3+    060126 850  0.3+  1.2-  

051209 734  0.4-  0.3-    060103 349  0.0   0.4+    060126 850  0.2+  0.5+  

051209 349  0.6-  0.7-    060103 147  0.1+  1.0+    060126 850  0.6-  0.6-  

051209 349  0.7-  0.7-    060103 147  1.5-  0.4-    060126 850  1.6+  0.4-  

051209 349  0.8-  0.5-    060108 673  1.2+  0.7+    060131 104 (0.1+  4.0+) 

051210 204  0.9+  0.2+    060108 673  0.8+  0.1-    060131 104 (0.4+  4.7+) 

051210 204  0.5+  0.7+    060108 673  1.1+  0.4-    060131 104  1.1-  1.0-  

051210 147  0.4+  0.1+    060108 118  0.6-  0.6+    060131 104  0.2+  2.0+  

051210 147  0.6+  0.3+    060108 118 (4.9-  1.2-)   060202 703  0.5-  1.4-  

051211 213  0.2-  0.3-    060110 204  0.4+  0.2+    060202 703  0.7+  0.9-  

051211 213  0.7-  0.5-    060110 204  0.8-  1.0+    060202 703  0.5+  0.7+  

051211 213  0.6-  0.2+    060122 703  0.8-  0.2+    060202 703  0.1-  1.7-  

051219 213  0.6-  1.9+    060122 703  1.3-  0.6-    060205 147 (3.1-  4.4+) 

051220 213  1.1+  0.4+    060122 703 (0.0   3.2-)   060316 213  0.3+  0.2+  

051220 213  0.5+  0.9+    060122 703  0.9-  0.9+    060316 213  0.7-  0.1-  

051222 349  0.4+  0.5+    060122 G96  1.1+  0.4+    060316 213  0.3+  0.5+  

051222 349  0.7+  0.7+    060122 G96  0.1+  1.6+                            

051222 349  0.2+  0.6+    060122 G96  0.9+  1.3+                            



NAKANO

         **** Don't distribute anyone except personal use only ****

                (C) Copyright 2006 OAA/ComputingSection

write mail from CFAD0::NAKANO on 2006-06-20 02:59:54(JST).





    C/2005 X1 (Beshore)

T 2005 July 5.73329 TT                                  Nakano

q   2.8618858            (2000.0)            P               Q

z  +0.0015658      Peri.  117.77613     -0.27757340     -0.46603503

 +/-0.0001724      Node   302.79879     -0.00720366     +0.87544530

e   0.9955189      Incl.   91.93682     +0.96067743     -0.12808932

From 97 observations 2005 Dec. 7-2006 Feb. 2.





NAKANO

         **** Don't distribute anyone except personal use only ****

                (C) Copyright 2006 OAA/ComputingSection

write mail from CFAD0::NAKANO on 2006-02-06 06:49:21(JST).

 





    C/2005 X1 (Beshore)

T 2005 July 8.84991 TT                                  Nakano

q   2.8920240            (2000.0)            P               Q

                   Peri.  118.95151     -0.29083294     -0.45684460

                   Node   302.72012     +0.00865968     +0.87734735

e   1.0            Incl.   92.27133     +0.95673466     -0.14681501

From 40 observations 2005 Dec. 7-29.



NAKANO

         **** Don't distribute anyone except personal use only ****

                (C) Copyright 2006 OAA/ComputingSection

write mail from CFAD0::NAKANO on 2006-01-01 05:09:23(JST).





◎C/2005 X1の軌道と予報位置です



 上尾の門田健一氏から12月9日の観測が報告されました.氏の CCD全光度は,

18.3等でした.



    C/2005 X1 (Beshore)

T 2005 Oct. 15.78198 TT                                 Nakano

q   3.3021981            (2000.0)            P               Q

                   Peri.  146.09111     -0.48771684     -0.20441984

                   Node   301.25241     +0.39882103     +0.81264681

e   1.0            Incl.   96.88160     +0.77657844     -0.54572676

From 25 observations 2005 Dec. 7-9.

               

 

Date/        TT  R.A.(2000) Decl.     Delta   r     Daily motion  Mag.  Moon Age

              h    h  m       。  ,                      ,  / PA 。  m1      。

2005 Dec.  9 18  10 10.18  +38 31.9   2.810  3.343    16.3 / 265  18.0  130  .65

          10 18  10 08.80  +38 30.3   2.796  3.344    16.8 / 265  18.0  118  .75

          11 18  10 07.38  +38 28.7   2.782  3.346    17.2 / 265  18.0  105  .84

          12 18  10 05.92  +38 27.1   2.768  3.347    17.7 / 265  18.0   92  .91

          13 18  10 04.41  +38 25.4   2.755  3.349    18.2 / 265  17.9   80  .96

          14 18  10 02.87  +38 23.7   2.741  3.350    18.7 / 265  17.9   67  .99

          15 18  10 01.29  +38 21.9   2.728  3.352    19.2 / 265  17.9   55 1.00

          16 18  09 59.66  +38 20.1   2.716  3.354    19.7 / 265  17.9   44  .99

          17 18  09 57.99  +38 18.1   2.703  3.355    20.2 / 264  17.9   33  .96

          18 18  09 56.29  +38 16.1   2.690  3.357    20.7 / 264  17.9   25  .91

          19 18  09 54.54  +38 14.0   2.678  3.359    21.2 / 264  17.9   20  .85

          20 18  09 52.75  +38 11.8   2.666  3.361    21.7 / 264  17.9   22  .77

          21 18  09 50.93  +38 09.5   2.655  3.362    22.2 / 264  17.9   29  .69

          22 18  09 49.06  +38 07.1   2.643  3.364    22.6 / 264  17.9   39  .60

          23 18  09 47.16  +38 04.5   2.632  3.366    23.1 / 263  17.9   49  .51

          24 18  09 45.21  +38 01.8   2.622  3.368    23.6 / 263  17.9   61  .41

          25 18  09 43.23  +37 58.9   2.611  3.370    24.1 / 263  17.9   73  .32

          26 18  09 41.21  +37 55.9   2.601  3.371    24.5 / 263  17.9   85  .22

          27 18  09 39.16  +37 52.7   2.591  3.373    25.0 / 262  17.8   98  .14

          28 18  09 37.07  +37 49.3   2.582  3.375    25.4 / 262  17.8  111  .08

          29 18  09 34.94  +37 45.7   2.572  3.377    25.9 / 262  17.8  125  .03

          30 18  09 32.79  +37 41.9   2.564  3.379    26.3 / 261  17.8  138  .00

          31 18  09 30.59  +37 37.9   2.555  3.381    26.7 / 261  17.8  151  .01

2006 Jan.  1 18  09 28.37  +37 33.6   2.547  3.383    27.1 / 261  17.8  161  .04

           2 18  09 26.12  +37 29.1   2.539  3.385    27.5 / 260  17.8  162  .10

           3 18  09 23.84  +37 24.4   2.532  3.387    27.9 / 260  17.8  152  .18

           4 18  09 21.54  +37 19.5   2.525  3.390    28.3 / 260  17.8  140  .28

           5 18  09 19.21  +37 14.2   2.519  3.392    28.7 / 259  17.8  126  .38

           6 18  09 16.85  +37 08.7   2.512  3.394    29.0 / 259  17.8  113  .50

           7 18  09 14.48  +37 03.0   2.507  3.396    29.3 / 258  17.8   99  .60

           8 18  09 12.08  +36 56.9   2.501  3.398    29.6 / 258  17.8   86  .71

           9 18  09 09.67  +36 50.6   2.497  3.400    29.9 / 257  17.8   73  .80

          10 18  09 07.24  +36 44.0   2.492  3.403    30.2 / 257  17.8   60  .87

NAKANO

         **** Don't distribute anyone except personal use only ****

                (C) Copyright 2005 OAA/ComputingSection

write mail from CFAD0::NAKANO on 2005-12-10 07:03:32(JST).

 





戻ります。